Hourly Weather Barra de Santo Antonio

Today, 8 March, Monday

Time Temperature Precipitation Wind Pressure Humidity
00:00 +26°C° 0 mm 4 mps 757 mmHg 88%
01:00 +26°C° 0 mm 4 mps 757 mmHg 89%
02:00 +26°C° 0 mm 3 mps 756 mmHg 90%
03:00 +25°C° 0 mm 3 mps 756 mmHg 91%
04:00 +25°C° 0 mm 3 mps 756 mmHg 91%
05:00 +25°C° 0 mm 3 mps 756 mmHg 90%
06:00 +25°C° 0 mm 3 mps 756 mmHg 90%
07:00 +25°C° 0 mm 3 mps 757 mmHg 90%
08:00 +27°C° 0 mm 3 mps 757 mmHg 80%
09:00 +29°C° 0 mm 4 mps 757 mmHg 70%
10:00 +32°C° 0 mm 4 mps 758 mmHg 59%
11:00 +33°C° 0 mm 4 mps 757 mmHg 57%
12:00 +34°C° 0 mm 5 mps 757 mmHg 55%
13:00 +35°C° 0 mm 5 mps 757 mmHg 53%
14:00 +34°C° 0 mm 5 mps 756 mmHg 55%
15:00 +34°C° 0 mm 5 mps 756 mmHg 56%
16:00 +33°C° 0 mm 5 mps 755 mmHg 58%
17:00 +32°C° 0 mm 5 mps 755 mmHg 65%
18:00 +30°C° 0 mm 5 mps 755 mmHg 72%
19:00 +28°C° 0 mm 5 mps 755 mmHg 78%
20:00 +28°C° 0 mm 4 mps 756 mmHg 81%
21:00 +27°C° 0 mm 4 mps 756 mmHg 84%
22:00 +27°C° 0 mm 4 mps 757 mmHg 87%
23:00 +26°C° 0 mm 4 mps 756 mmHg 88%

Tomorrow, 9 March, Tuesday

Time Temperature Precipitation Wind Pressure Humidity
00:00 +26°C° 0 mm 3 mps 756 mmHg 89%
01:00 +26°C° 0 mm 3 mps 756 mmHg 90%
02:00 +26°C° 0 mm 3 mps 756 mmHg 90%
03:00 +26°C° 0 mm 3 mps 756 mmHg 89%
04:00 +25°C° 0 mm 3 mps 756 mmHg 89%
05:00 +26°C° 0 mm 3 mps 756 mmHg 87%
06:00 +26°C° 0 mm 3 mps 756 mmHg 86%
07:00 +26°C° 0 mm 3 mps 756 mmHg 85%
08:00 +28°C° 0 mm 3 mps 757 mmHg 75%
09:00 +30°C° 0 mm 3 mps 757 mmHg 66%
10:00 +32°C° 0 mm 4 mps 757 mmHg 56%
11:00 +33°C° 0 mm 4 mps 757 mmHg 54%
12:00 +34°C° 0 mm 4 mps 756 mmHg 52%
13:00 +35°C° 0 mm 4 mps 756 mmHg 50%
14:00 +34°C° 0 mm 5 mps 755 mmHg 52%
15:00 +34°C° 0 mm 5 mps 754 mmHg 54%
16:00 +34°C° 0 mm 5 mps 754 mmHg 56%
17:00 +32°C° 0 mm 5 mps 754 mmHg 63%
18:00 +30°C° 0 mm 5 mps 754 mmHg 71%
19:00 +28°C° 0 mm 4 mps 754 mmHg 78%
20:00 +28°C° 0 mm 4 mps 755 mmHg 82%
21:00 +27°C° 0 mm 4 mps 755 mmHg 85%
22:00 +27°C° 0 mm 4 mps 756 mmHg 88%
23:00 +27°C° 0.1 mm 4 mps 756 mmHg 89%

Day after tomorrow, 10 March, Wednesday

Time Temperature Precipitation Wind Pressure Humidity
00:00 +27°C° 0.1 mm 4 mps 755 mmHg 90%
01:00 +26°C° 0.1 mm 4 mps 755 mmHg 90%
02:00 +26°C° 0 mm 4 mps 755 mmHg 91%
03:00 +26°C° 0 mm 3 mps 755 mmHg 91%
04:00 +26°C° 0 mm 3 mps 755 mmHg 91%
05:00 +26°C° 0 mm 3 mps 756 mmHg 90%
06:00 +26°C° 0 mm 3 mps 756 mmHg 90%
07:00 +26°C° 0 mm 2 mps 756 mmHg 90%
08:00 +28°C° 0.1 mm 3 mps 756 mmHg 82%
09:00 +30°C° 0.1 mm 3 mps 757 mmHg 74%
10:00 +33°C° 0.1 mm 4 mps 757 mmHg 66%
11:00 +33°C° 0.1 mm 4 mps 757 mmHg 63%
12:00 +34°C° 0.1 mm 5 mps 756 mmHg 60%
13:00 +35°C° 0.1 mm 5 mps 756 mmHg 57%
14:00 +34°C° 0 mm 5 mps 755 mmHg 58%
15:00 +34°C° 0 mm 5 mps 755 mmHg 60%
16:00 +33°C° 0 mm 5 mps 754 mmHg 61%
17:00 +32°C° 0 mm 5 mps 754 mmHg 67%
18:00 +30°C° 0 mm 5 mps 755 mmHg 73%
19:00 +29°C° 0 mm 5 mps 755 mmHg 79%
20:00 +28°C° 0 mm 5 mps 755 mmHg 81%
21:00 +28°C° 0 mm 5 mps 756 mmHg 84%
22:00 +27°C° 0 mm 4 mps 756 mmHg 86%
23:00 +27°C° 0 mm 4 mps 756 mmHg 87%

11 March, Thursday

Time Temperature Precipitation Wind Pressure Humidity
00:00 +27°C° 0 mm 4 mps 756 mmHg 89%
01:00 +27°C° 0 mm 4 mps 756 mmHg 90%
02:00 +27°C° 0.1 mm 3 mps 756 mmHg 91%
03:00 +27°C° 0.1 mm 3 mps 756 mmHg 91%
04:00 +27°C° 0.1 mm 3 mps 756 mmHg 91%
05:00 +27°C° 0.2 mm 3 mps 756 mmHg 91%
06:00 +27°C° 0.2 mm 3 mps 756 mmHg 91%
07:00 +27°C° 0.2 mm 3 mps 757 mmHg 91%
08:00 +28°C° 0.2 mm 4 mps 757 mmHg 85%
09:00 +29°C° 0.2 mm 4 mps 757 mmHg 79%
10:00 +32°C° 0.2 mm 5 mps 758 mmHg 73%
11:00 +32°C° 0.1 mm 5 mps 757 mmHg 68%
12:00 +33°C° 0.1 mm 5 mps 757 mmHg 63%
13:00 +34°C° 0.1 mm 5 mps 757 mmHg 58%
14:00 +34°C° 0 mm 5 mps 756 mmHg 59%
15:00 +34°C° 0 mm 5 mps 756 mmHg 59%
16:00 +33°C° 0 mm 5 mps 755 mmHg 59%
17:00 +32°C° 0 mm 5 mps 755 mmHg 65%
18:00 +30°C° 0 mm 4 mps 756 mmHg 71%
19:00 +28°C° 0 mm 4 mps 756 mmHg 77%
20:00 +28°C° 0 mm 4 mps 756 mmHg 80%
21:00 +27°C° 0 mm 3 mps 757 mmHg 83%
22:00 +27°C° 0 mm 3 mps 757 mmHg 86%
23:00 +27°C° 0.1 mm 3 mps 757 mmHg 87%

12 March, Friday

Time Temperature Precipitation Wind Pressure Humidity
00:00 +27°C° 0.1 mm 3 mps 756 mmHg 89%
01:00 +26°C° 0.1 mm 3 mps 756 mmHg 90%
02:00 +26°C° 0.2 mm 3 mps 756 mmHg 90%
03:00 +26°C° 0.2 mm 3 mps 756 mmHg 91%
04:00 +26°C° 0.2 mm 3 mps 755 mmHg 91%
05:00 +26°C° 0.3 mm 3 mps 756 mmHg 90%
06:00 +26°C° 0.3 mm 3 mps 756 mmHg 90%
07:00 +27°C° 0.3 mm 3 mps 756 mmHg 90%
08:00 +28°C° 0.3 mm 4 mps 757 mmHg 83%
09:00 +29°C° 0.3 mm 4 mps 757 mmHg 77%
10:00 +32°C° 0.3 mm 4 mps 757 mmHg 71%
11:00 +32°C° 0.2 mm 4 mps 757 mmHg 66%
12:00 +33°C° 0.2 mm 5 mps 757 mmHg 62%
13:00 +34°C° 0.2 mm 5 mps 756 mmHg 58%
14:00 +34°C° 0.1 mm 5 mps 756 mmHg 58%
15:00 +33°C° 0.1 mm 5 mps 755 mmHg 58%
16:00 +33°C° 0.1 mm 5 mps 755 mmHg 58%
17:00 +32°C° 0 mm 5 mps 755 mmHg 65%
18:00 +30°C° 0 mm 4 mps 755 mmHg 72%
19:00 +28°C° 0 mm 4 mps 756 mmHg 78%
20:00 +28°C° 0 mm 4 mps 756 mmHg 81%
21:00 +27°C° 0 mm 4 mps 756 mmHg 83%
22:00 +27°C° 0 mm 4 mps 757 mmHg 85%
23:00 +27°C° 0.1 mm 4 mps 757 mmHg 86%

13 March, Saturday

Time Temperature Precipitation Wind Pressure Humidity
00:00 +27°C° 0.1 mm 3 mps 757 mmHg 88%
01:00 +26°C° 0.1 mm 3 mps 756 mmHg 89%
02:00 +26°C° 0.2 mm 3 mps 756 mmHg 89%
03:00 +26°C° 0.2 mm 3 mps 756 mmHg 90%
04:00 +26°C° 0.2 mm 3 mps 756 mmHg 90%
05:00 +26°C° 0.6 mm 3 mps 756 mmHg 90%
06:00 +26°C° 0.6 mm 3 mps 756 mmHg 89%
07:00 +26°C° 0.6 mm 2 mps 756 mmHg 89%
08:00 +27°C° 0.7 mm 3 mps 757 mmHg 80%
09:00 +29°C° 0.7 mm 3 mps 757 mmHg 72%
10:00 +30°C° 0.7 mm 3 mps 757 mmHg 64%
11:00 +32°C° 0.3 mm 4 mps 757 mmHg 61%
12:00 +33°C° 0.3 mm 4 mps 757 mmHg 58%
13:00 +33°C° 0.3 mm 5 mps 757 mmHg 56%
14:00 +33°C° 0.2 mm 5 mps 756 mmHg 58%
15:00 +33°C° 0.2 mm 5 mps 755 mmHg 59%
16:00 +32°C° 0.2 mm 5 mps 755 mmHg 61%
17:00 +30°C° 0.1 mm 5 mps 755 mmHg 67%
18:00 +29°C° 0.1 mm 5 mps 755 mmHg 73%
19:00 +28°C° 0.1 mm 5 mps 756 mmHg 78%
20:00 +28°C° 0.1 mm 5 mps 756 mmHg 80%
21:00 +27°C° 0.1 mm 4 mps 757 mmHg 83%
22:00 +27°C° 0.1 mm 4 mps 757 mmHg 85%
23:00 +27°C° 0.2 mm 4 mps 757 mmHg 86%
Show more